[[{"header":{"parameterUnit":"m.s-1","parameterCategory":1,"la1":30.2991,"la2":30.254,"lo1":-89.0895,"lo2":-89.0444,"dy":0.0017,"dx":0.0017,"nx":28,"ny":28,"refTime":"2024-10-12T09:00:00:Z","depth":0,"parameterNumber":2,"parameterNumberName":"U-component_of_WINDS"},"data":[0,0,0,0,0,0,0,0,0,0,0,0,0,0,0,0,0,0,0,0,0,0,0,0,0,0,0,0,0,0,0,0,0,0,0,0,0,0,0,0,0,0,0,0,0,0,0,0,0,0,0,0,0,0,0,0,0,0,1.249,1.249,0,1.2488,1.2488,1.2488,1.2475,1.2475,1.2475,1.2474,1.247,1.247,1.247,0,0,0,0,0,0,0,0,0,0,0,0,0,1.2479,1.2479,1.249,1.249,1.249,1.2488,1.2488,1.2488,1.2475,1.2475,1.2474,1.2474,1.247,1.247,1.247,0,0,0,0,0,0,0,0,0,0,0,0,0,1.2481,1.2479,1.249,1.2484,1.2483,1.2488,1.2488,1.2488,1.2475,1.2475,1.2474,1.2474,1.247,1.247,1.247,1.2481,0,0,1.2471,1.2471,0,0,0,0,0,0,0,0,1.2481,1.2481,1.2485,1.2484,1.2483,1.2482,1.2482,1.2486,1.2475,1.2478,1.2474,1.2474,1.2474,1.2474,1.2474,1.2481,1.248,1.2471,1.2471,1.2471,1.2471,0,0,0,0,0,0,0,1.2481,1.2481,1.2489,1.2485,1.2484,1.2479,1.2479,1.2483,1.2479,1.2478,1.2477,1.2477,1.2473,1.2474,1.2474,1.248,1.2471,1.2471,1.2471,1.2471,1.2492,1.2492,0,0,0,0,0,0,1.2482,1.2481,1.249,1.2489,1.2481,1.248,1.248,1.2483,1.2479,1.2477,1.2477,1.2476,1.2474,1.2474,1.2474,1.2484,1.2471,1.2471,1.2471,1.2492,1.2492,1.2492,0,0,0,0,0,0,1.2482,1.2483,1.249,1.2485,1.2486,1.2481,1.2484,1.2483,1.2483,1.2478,1.2477,1.2479,1.2473,1.2473,1.2479,1.2484,1.2471,1.2472,1.2491,1.2492,1.2492,1.2506,0,0,0,0,0,0,1.2481,1.2483,1.2488,1.2485,1.2486,1.2496,1.2484,1.2483,1.2484,1.2483,1.248,1.2478,1.2473,1.2478,1.2479,1.2484,1.2472,1.2491,1.2491,1.2492,1.2505,1.2507,1.2509,0,0,0,0,0,1.2481,1.2492,1.2489,1.249,1.2493,1.2496,1.2496,1.2491,1.2485,1.2489,1.2485,1.2479,1.2483,1.2479,1.2479,1.2485,1.249,1.2491,1.2492,1.2504,1.2507,1.2509,0,0,0,0,0,0,1.2496,1.2492,1.2488,1.2499,1.2498,1.2494,1.25,1.2494,1.2494,1.2493,1.2485,1.2484,1.249,1.2488,1.2483,1.2493,1.2485,1.2486,1.2495,1.2497,1.2499,1.2499,1.2472,0,0,0,0,0,1.25,1.2505,1.2501,1.2511,1.2511,1.2505,1.2507,1.2502,1.2501,1.25,1.2497,1.2495,1.2495,1.2496,1.2497,1.2505,1.2502,1.2508,1.251,1.2512,1.2512,1.2514,1.2516,1.2495,1.2495,1.2495,0,0,1.251,1.2508,1.2512,1.2514,1.2512,1.2515,1.2505,1.2509,1.2511,1.25,1.2505,1.2502,1.2499,1.2505,1.2507,1.2503,1.2517,1.2513,1.2514,1.2514,1.2515,1.2517,1.2518,1.2496,1.2496,1.2496,0,0,1.2528,1.2529,1.2536,1.2534,1.2533,1.2528,1.253,1.2526,1.2524,1.2528,1.252,1.2521,1.2523,1.252,1.2519,1.2534,1.2527,1.2534,1.2543,1.2545,1.2546,1.2548,1.2551,1.2552,1.2535,1.2535,1.2535,0,1.254,1.2546,1.254,1.2544,1.2544,1.2534,1.254,1.2539,1.2537,1.2536,1.2532,1.2533,1.253,1.2534,1.2537,1.2537,1.2537,1.2534,1.2547,1.2548,1.2549,1.2552,1.2553,1.2536,1.2535,1.2535,1.2535,0,1.2559,1.2562,1.2568,1.2566,1.2567,1.2572,1.2565,1.2566,1.2561,1.2556,1.2559,1.2555,1.2554,1.2554,1.255,1.2557,1.2554,1.2548,1.254,1.2552,1.2554,1.2556,1.2537,1.2536,1.2536,1.2536,0,0,1.2588,1.2581,1.2583,1.2581,1.2577,1.2579,1.2582,1.2581,1.2581,1.258,1.2581,1.2581,1.2575,1.2574,1.2568,1.257,1.2578,1.2563,1.2563,1.2565,1.2584,1.2587,1.2589,1.2574,1.2574,1.2574,1.2583,0,1.2604,1.261,1.2604,1.261,1.2612,1.2602,1.2604,1.2601,1.2597,1.2596,1.2591,1.2591,1.2584,1.2582,1.2583,1.2577,1.2582,1.2577,1.2573,1.2573,1.2574,1.2591,1.2595,1.2604,1.2585,1.2585,1.2585,0,1.2624,1.2623,1.263,1.2623,1.2624,1.2626,1.2623,1.2623,1.2618,1.2615,1.2612,1.2605,1.2606,1.2598,1.2598,1.2594,1.2592,1.2589,1.2589,1.2588,1.2579,1.2589,1.2607,1.2608,1.2587,1.2587,1.2586,0,1.2642,1.2642,1.2646,1.2644,1.2637,1.2639,1.2636,1.2631,1.2629,1.2626,1.2625,1.2622,1.262,1.2616,1.2608,1.2603,1.2608,1.26,1.2603,1.2603,1.2604,1.2604,1.2621,1.2605,1.2605,1.2605,1.2605,0,1.266,1.2664,1.2653,1.2655,1.2659,1.265,1.2654,1.2649,1.2644,1.2644,1.2635,1.2635,1.2624,1.2622,1.2615,1.2614,1.2614,1.261,1.2608,1.261,1.261,1.2608,1.2607,1.2605,1.2605,1.2605,1.2605,0,1.268,1.2674,1.2676,1.2669,1.2667,1.267,1.2662,1.2663,1.2657,1.2657,1.2656,1.2647,1.2643,1.2635,1.2629,1.2625,1.2625,1.2622,1.2627,1.2626,1.2629,1.2628,1.2645,1.2646,1.2629,1.263,1.263,0,1.2692,1.2695,1.2687,1.2686,1.2684,1.2683,1.2681,1.2672,1.267,1.2664,1.2665,1.2661,1.2657,1.2652,1.2644,1.2639,1.2635,1.2641,1.2634,1.2636,1.2634,1.2633,1.2633,1.2643,1.2643,1.2643,1.2643,0,1.2712,1.2708,1.2707,1.2703,1.2702,1.2698,1.2695,1.2694,1.2684,1.2682,1.2679,1.2676,1.267,1.2665,1.2659,1.2654,1.2646,1.2645,1.2645,1.2648,1.265,1.2647,1.263,1.2645,1.2645,1.2645,1.2644,1.2644,1.2727,1.2729,1.2723,1.2721,1.2717,1.2713,1.2712,1.2706,1.2703,1.2698,1.2692,1.2689,1.2682,1.2672,1.2668,1.2664,1.266,1.2661,1.2661,1.2661,1.2662,1.2651,1.2663,1.2663,1.2663,1.2663,1.2663,0,1.2746,1.2741,1.2739,1.2734,1.2732,1.2725,1.272,1.2718,1.2715,1.271,1.2706,1.2701,1.2696,1.2687,1.2681,1.2679,1.2675,1.2678,1.2677,1.2676,1.2666,1.2666,1.2681,1.2681,1.2681,1.2681,1.2681,1.2681,1.2755,1.2756,1.2751,1.2749,1.2744,1.2741,1.2738,1.2734,1.2729,1.2724,1.272,1.2714,1.2706,1.2699,1.2693,1.2691,1.2688,1.2692,1.2688,1.2679,1.2677,1.2675,1.2675,1.2692,1.2692,1.2698,1.2698,1.2698]},{"header":{"parameterUnit":"m.s-1","parameterCategory":1,"la1":30.2991,"la2":30.254,"lo1":-89.0895,"lo2":-89.0444,"dy":0.0017,"dx":0.0017,"nx":28,"ny":28,"refTime":"2024-10-12T09:00:00:Z","depth":0,"parameterNumber":3,"parameterNumberName":"V-component_of_WINDS"},"data":[0,0,0,0,0,0,0,0,0,0,0,0,0,0,0,0,0,0,0,0,0,0,0,0,0,0,0,0,0,0,0,0,0,0,0,0,0,0,0,0,0,0,0,0,0,0,0,0,0,0,0,0,0,0,0,0,0,0,2.014,2.014,0,2.0121,2.012,2.012,2.0079,2.0078,2.0077,2.0076,2.0055,2.0055,2.0055,0,0,0,0,0,0,0,0,0,0,0,0,0,2.0139,2.0139,2.014,2.014,2.014,2.0121,2.012,2.012,2.0079,2.0078,2.0077,2.0076,2.0055,2.0055,2.0055,0,0,0,0,0,0,0,0,0,0,0,0,0,2.0131,2.0139,2.014,2.0117,2.0115,2.0121,2.012,2.012,2.0079,2.0078,2.0076,2.0075,2.0055,2.0055,2.0055,2.0082,0,0,2.0056,2.0056,0,0,0,0,0,0,0,0,2.0132,2.0131,2.0121,2.0118,2.0116,2.0101,2.0112,2.0107,2.0079,2.0092,2.0076,2.0075,2.0071,2.007,2.0069,2.0081,2.008,2.0056,2.0056,2.0057,2.0057,0,0,0,0,0,0,0,2.0132,2.0132,2.0132,2.012,2.0118,2.0106,2.0104,2.0111,2.0089,2.0091,2.0088,2.0086,2.0069,2.0069,2.0068,2.008,2.0056,2.0056,2.0057,2.0057,2.011,2.0111,0,0,0,0,0,0,2.0137,2.0133,2.0133,2.0132,2.0121,2.0107,2.0105,2.0107,2.0089,2.0085,2.0088,2.0085,2.0069,2.0068,2.0067,2.0095,2.0057,2.0057,2.0057,2.0109,2.011,2.0112,0,0,0,0,0,0,2.0137,2.0137,2.0134,2.0131,2.013,2.0109,2.0112,2.0107,2.0106,2.0086,2.0082,2.0091,2.0068,2.0067,2.0078,2.0094,2.0057,2.0057,2.0107,2.0109,2.0111,2.0154,0,0,0,0,0,0,2.0137,2.0137,2.0148,2.0132,2.0131,2.0146,2.0113,2.0108,2.0107,2.0103,2.0088,2.0084,2.0067,2.0078,2.0079,2.0094,2.0058,2.0106,2.0108,2.0111,2.0151,2.0157,2.0162,0,0,0,0,0,2.0137,2.0162,2.0149,2.0149,2.0144,2.0147,2.0146,2.0126,2.0109,2.0119,2.0105,2.0085,2.0093,2.0079,2.008,2.0096,2.0105,2.0108,2.011,2.0148,2.0155,2.0162,0,0,0,0,0,0,2.0181,2.0159,2.0145,2.0165,2.0158,2.014,2.0153,2.0135,2.0132,2.0129,2.0103,2.01,2.0114,2.0106,2.0092,2.0119,2.0095,2.0098,2.0124,2.0131,2.0136,2.0137,2.0058,0,0,0,0,0,2.0192,2.0198,2.0179,2.0198,2.0195,2.0175,2.0175,2.016,2.0152,2.0149,2.0136,2.0128,2.0128,2.0129,2.0129,2.0149,2.0144,2.016,2.0166,2.017,2.0173,2.018,2.0186,2.0121,2.0121,2.0121,0,0,2.0217,2.0206,2.0211,2.0206,2.0199,2.0204,2.0173,2.018,2.0182,2.015,2.0159,2.0149,2.0139,2.0154,2.016,2.0148,2.019,2.0174,2.0178,2.0178,2.0184,2.019,2.0196,2.0123,2.0122,2.0122,0,0,2.0264,2.0257,2.0271,2.0265,2.0254,2.024,2.0243,2.0227,2.022,2.0229,2.0203,2.0206,2.0208,2.02,2.0197,2.0239,2.0219,2.0239,2.0268,2.0275,2.0281,2.0285,2.0298,2.0303,2.0242,2.0242,2.0242,0,2.0296,2.0303,2.0281,2.0289,2.0287,2.0257,2.027,2.0264,2.0254,2.0252,2.0239,2.0238,2.0229,2.0241,2.0251,2.025,2.0252,2.024,2.0282,2.0286,2.029,2.0301,2.0306,2.0244,2.0244,2.0244,2.0244,0,2.0341,2.0346,2.0359,2.0349,2.0348,2.0359,2.0337,2.0339,2.0323,2.031,2.0318,2.0306,2.0301,2.0303,2.0288,2.0312,2.0304,2.0287,2.0262,2.0299,2.0309,2.0314,2.0248,2.0247,2.0246,2.0246,0,0,2.0416,2.0393,2.0397,2.0391,2.0377,2.0379,2.0388,2.0383,2.0383,2.0377,2.0382,2.0383,2.0366,2.0362,2.0345,2.0352,2.0383,2.0333,2.0333,2.0341,2.0406,2.0418,2.0424,2.037,2.0371,2.0372,2.0406,0,2.0458,2.0471,2.0451,2.0468,2.0471,2.0442,2.0448,2.0439,2.0427,2.0426,2.0412,2.0412,2.0391,2.0388,2.0393,2.0378,2.0395,2.0376,2.0373,2.0373,2.0375,2.043,2.0443,2.0476,2.041,2.0411,2.0411,0,2.051,2.0505,2.0522,2.0504,2.0504,2.0511,2.0503,2.0504,2.0492,2.0482,2.0477,2.0457,2.0462,2.0439,2.0444,2.0431,2.0428,2.042,2.0421,2.0419,2.0394,2.0427,2.0486,2.0491,2.0418,2.0417,2.0417,0,2.0559,2.0557,2.0567,2.0563,2.0543,2.0547,2.0539,2.0526,2.0523,2.0516,2.0514,2.0508,2.0505,2.05,2.0478,2.0464,2.0485,2.0461,2.0475,2.0476,2.048,2.048,2.0538,2.0481,2.0481,2.0481,2.0481,0,2.0608,2.0619,2.0589,2.0594,2.0605,2.0581,2.0592,2.0581,2.0569,2.057,2.0545,2.0547,2.0519,2.0518,2.0501,2.0506,2.0505,2.0496,2.0491,2.0497,2.0498,2.0495,2.0491,2.0483,2.0482,2.0482,2.0482,0,2.0665,2.0646,2.0654,2.0633,2.0628,2.0637,2.0618,2.0622,2.0607,2.0609,2.0608,2.0585,2.0581,2.056,2.0552,2.054,2.0551,2.0542,2.0555,2.0551,2.0566,2.0564,2.0623,2.0628,2.057,2.0571,2.0571,0,2.0697,2.0705,2.0685,2.0684,2.0676,2.0676,2.0673,2.0649,2.0646,2.0632,2.0637,2.0631,2.0625,2.0621,2.0602,2.0595,2.0585,2.0606,2.0584,2.0589,2.0583,2.0582,2.0581,2.061,2.0611,2.0612,2.0612,0,2.0754,2.0743,2.074,2.0733,2.073,2.0723,2.0715,2.0716,2.0688,2.0687,2.0683,2.0678,2.0669,2.0663,2.0652,2.0642,2.0622,2.0619,2.0622,2.0628,2.0634,2.0628,2.0566,2.0618,2.0617,2.0617,2.0617,2.0616,2.0798,2.0803,2.0789,2.0785,2.0776,2.0768,2.077,2.0755,2.0751,2.0742,2.0727,2.0725,2.071,2.0693,2.0685,2.0681,2.067,2.0674,2.0675,2.0676,2.0678,2.0636,2.068,2.0679,2.0679,2.0679,2.0679,0,2.0852,2.0841,2.0839,2.0827,2.0824,2.0806,2.0794,2.0793,2.0791,2.0779,2.0773,2.0768,2.0761,2.0741,2.0733,2.0733,2.0724,2.0732,2.0731,2.0728,2.069,2.0688,2.0739,2.0739,2.0739,2.0739,2.0739,2.0739,2.088,2.0886,2.0873,2.0874,2.0862,2.086,2.0855,2.0846,2.0837,2.0831,2.0826,2.0813,2.0797,2.0787,2.0779,2.0773,2.077,2.0781,2.0772,2.0737,2.0731,2.0725,2.0723,2.0781,2.0781,2.081,2.081,2.081]}]]